Time,TemperatureF,DewpointF,PressureIn,WindDirection,WindDirectionDegrees,WindSpeedMPH,WindSpeedGustMPH,Humidity,HourlyPrecipIn,Conditions,Clouds,dailyrainin,SoftwareType,DateUTC
2013-03-28 00:00:00,34.8,24.2,30.30,North,349,2.3,3.1,65,0.00,CLR,,0.15,WeatherDisplay:10.37,2013-03-28 04:00:00,
2013-03-28 00:05:00,34.6,23.7,30.30,NW,323,6.0,9.0,64,0.00,RA,RA,0.00,WeatherDisplay:10.37,2013-03-28 04:05:00,
2013-03-28 00:10:00,34.6,23.7,30.30,West,264,3.5,3.5,64,0.00,RA,,0.00,WeatherDisplay:10.37,2013-03-28 04:10:00,
2013-03-28 00:15:00,34.6,24.1,30.30,SSE,158,6.0,10.0,65,0.00,CLR,CLR,0.00,WeatherDisplay:10.37,2013-03-28 04:15:00,
2013-03-28 00:20:00,34.6,24.4,30.30,East,93,6.9,6.9,66,0.00,CLR,,0.00,WeatherDisplay:10.37,2013-03-28 04:20:00,
2013-03-28 00:25:00,34.5,23.9,30.30,SSW,193,4.4,4.4,65,0.00,CLR,,0.00,WeatherDisplay:10.37,2013-03-28 04:25:00,
2013-03-28 00:30:00,34.4,24.6,30.30,East,89,0.0,6.0,67,0.00,CLR,CLR,0.00,WeatherDisplay:10.37,2013-03-28 04:30:00,
2013-03-28 00:35:00,34.4,23.8,30.30,West,276,0.0,2.0,65,0.00,CLR,CLR,0.00,WeatherDisplay:10.37,2013-03-28 04:35:00,
2013-03-28 00:40:00,34.3,23.7,30.29,ESE,102,2.2,2.5,65,0.00,CLR,,0.00,WeatherDisplay:10.37,2013-03-28 04:40:00,
2013-03-28 00:45:00,34.3,24.5,30.30,East,98,5.0,9.0,67,0.00,CLR,CLR,0.00,WeatherDisplay:10.37,2013-03-28 04:45:00,
2013-03-28 00:50:00,34.2,23.7,30.30,West,261,6.9,6.9,65,0.00,CLR,,0.00,WeatherDisplay:10.37,2013-03-28 04:50:00,
2013-03-28 00:55:00,34.1,23.9,30.30,NNW,348,2.0,7.0,66,0.00,CLR,CLR,0.00,WeatherDisplay:10.37,2013-03-28 04:55:00,
2013-03-28 01:00:00,34.1,23.9,30.29,SW,232,8.1,8.1,66,0.00,CLR,,0.00,WeatherDisplay:10.37,2013-03-28 05:00:00,
2013-03-28 01:05:00,34.0,24.2,30.29,ESE,108,5.8,5.8,67,0.00,CLR,,0.00,WeatherDisplay:10.37,2013-03-28 05:05:00,
2013-03-28 01:10:00,33.9,23.7,30.29,SW,232,12.0,12.0,66,0.00,CLR,,0.00,WeatherDisplay:10.37,2013-03-28 05:10:00,
2013-03-28 01:15:00,33.9,25.1,30.29,North,10,6.9,6.9,70,0.00,CLR,,0.00,WeatherDisplay:10.37,2013-03-28 05:15:00,
2013-03-28 01:20:00,33.8,24.7,30.29,NNE,27,6.9,6.9,69,0.00,CLR,,0.00,WeatherDisplay:10.37,2013-03-28 05:20:00,
2013-03-28 01:25:00,33.8,24.0,30.29,NNE,14,1.0,7.0,67,0.00,CLR,CLR,0.00,WeatherDisplay:10.37,2013-03-28 05:25:00,
2013-03-28 01:30:00,33.8,24.0,30.29,West,274,5.8,5.8,67,0.00,CLR,,0.00,WeatherDisplay:10.37,2013-03-28 05:30:00,
2013-03-28 01:35:00,33.7,24.3,30.28,NW,321,5.8,5.8,68,0.00,CLR,,0.00,WeatherDisplay:10.37,2013-03-28 05:35:00,
2013-03-28 01:40:00,33.6,24.2,30.28,NW,315,2.0,5.0,68,0.00,CLR,CLR,0.00,WeatherDisplay:10.37,2013-03-28 05:40:00,
2013-03-28 01:45:00,33.6,24.2,30.29,WNW,294,0.0,6.0,68,0.00,CLR,CLR,0.00,WeatherDisplay:10.37,2013-03-28 05:45:00,
2013-03-28 01:50:00,33.6,24.1,30.29,SSW,193,5.0,7.0,68,0.00,CLR,CLR,0.00,WeatherDisplay:10.37,2013-03-28 05:50:00,
2013-03-28 01:55:00,33.5,23.7,30.29,SSE,162,0.0,3.0,67,0.00,CLR,CLR,0.00,WeatherDisplay:10.37,2013-03-28 05:55:00,
2013-03-28 02:00:00,33.4,24.0,30.29,SE,135,2.3,2.3,68,0.00,CLR,,0.00,WeatherDisplay:10.37,2013-03-28 06:00:00,
2013-03-28 02:05:00,33.4,23.6,30.29,WSW,242,5.8,5.8,67,0.00,CLR,,0.00,WeatherDisplay:10.37,2013-03-28 06:05:00,
2013-03-28 02:10:00,33.4,24.0,30.29,SSE,150,2.0,5.0,68,0.00,CLR,CLR,0.00,WeatherDisplay:10.37,2013-03-28 06:10:00,
2013-03-28 02:15:00,33.4,23.9,30.29,SSE,167,0.0,5.0,68,0.00,CLR,CLR,0.00,WeatherDisplay:10.37,2013-03-28 06:15:00,
2013-03-28 02:20:00,33.3,23.5,30.28,North,6,5.8,5.8,67,0.00,CLR,,0.00,WeatherDisplay:10.37,2013-03-28 06:20:00,
2013-03-28 02:25:00,33.4,24.0,30.28,NE,45,1.0,6.0,68,0.00,CLR,CLR,0.00,WeatherDisplay:10.37,2013-03-28 06:25:00,
2013-03-28 02:30:00,33.3,23.5,30.28,NNW,335,2.2,2.2,67,0.00,CLR,,0.00,WeatherDisplay:10.37,2013-03-28 06:30:00,
2013-03-28 02:35:00,33.2,24.1,30.28,East,99,1.0,8.0,69,0.00,CLR,CLR,0.00,WeatherDisplay:10.37,2013-03-28 06:35:00,
2013-03-28 02:40:00,33.1,23.7,30.28,NW,315,1.0,6.0,68,0.00,CLR,CLR,0.00,WeatherDisplay:10.37,2013-03-28 06:40:00,
2013-03-28 02:45:00,33.0,23.6,30.28,WNW,295,2.0,6.0,68,0.00,CLR,CLR,0.00,WeatherDisplay:10.37,2013-03-28 06:45:00,
2013-03-28 02:50:00,33.0,23.9,30.28,NW,314,1.0,9.0,69,0.00,CLR,CLR,0.00,WeatherDisplay:10.37,2013-03-28 06:50:00,
2013-03-28 02:55:00,33.0,23.9,30.28,East,79,2.0,5.0,69,0.00,CLR,CLR,0.00,WeatherDisplay:10.37,2013-03-28 06:55:00,
2013-03-28 03:00:00,32.9,23.8,30.29,NNE,14,1.2,0.0,69,0.00,CLR,,0.00,WeatherDisplay:10.37,2013-03-28 07:00:00,
2013-03-28 03:05:00,32.9,23.8,30.28,ESE,118,0.0,7.0,69,0.00,CLR,CLR,0.00,WeatherDisplay:10.37,2013-03-28 07:05:00,
2013-03-28 03:10:00,32.8,23.7,30.29,SSE,149,3.5,3.5,69,0.00,CLR,,0.00,WeatherDisplay:10.37,2013-03-28 07:10:00,
2013-03-28 03:15:00,32.8,23.4,30.29,SSW,195,2.3,2.3,68,0.00,CLR,,0.00,WeatherDisplay:10.37,2013-03-28 07:15:00,
2013-03-28 03:20:00,32.7,23.3,30.28,SW,215,1.0,5.0,68,0.00,CLR,CLR,0.00,WeatherDisplay:10.37,2013-03-28 07:20:00,
2013-03-28 03:25:00,32.7,23.3,30.28,SSW,205,0.0,2.0,68,0.00,CLR,CLR,0.00,WeatherDisplay:10.37,2013-03-28 07:25:00,
2013-03-28 03:30:00,32.7,23.6,30.28,South,183,1.2,0.0,69,0.00,CLR,,0.00,WeatherDisplay:10.37,2013-03-28 07:30:00,
2013-03-28 03:35:00,32.7,23.6,30.28,South,183,0.0,0.0,69,0.00,CLR,,0.00,WeatherDisplay:10.37,2013-03-28 07:35:00,
2013-03-28 03:40:00,32.6,23.6,30.28,SSW,198,0.0,0.4,69,0.00,CLR,,0.00,WeatherDisplay:10.37,2013-03-28 07:40:00,
2013-03-28 03:45:00,32.5,23.5,30.28,SW,232,1.2,1.6,69,0.00,CLR,,0.00,WeatherDisplay:10.37,2013-03-28 07:45:00,
2013-03-28 03:50:00,32.5,23.8,30.28,SSE,151,0.0,0.6,70,0.00,CLR,,0.00,WeatherDisplay:10.37,2013-03-28 07:50:00,
2013-03-28 03:55:00,32.4,23.4,30.28,SSW,195,0.0,0.0,69,0.00,CLR,,0.00,WeatherDisplay:10.37,2013-03-28 07:55:00,
2013-03-28 04:00:00,32.3,22.9,30.28,West,273,2.3,2.3,68,0.00,CLR,,0.00,WeatherDisplay:10.37,2013-03-28 08:00:00,
2013-03-28 04:05:00,32.3,22.9,30.28,West,274,1.2,1.2,68,0.00,CLR,,0.00,WeatherDisplay:10.37,2013-03-28 08:05:00,
2013-03-28 04:10:00,32.3,23.3,30.28,West,274,0.0,0.0,69,0.00,CLR,,0.00,WeatherDisplay:10.37,2013-03-28 08:10:00,
2013-03-28 04:15:00,32.2,23.2,30.28,West,261,1.0,4.0,69,0.00,CLR,CLR,0.00,WeatherDisplay:10.37,2013-03-28 08:15:00,
2013-03-28 04:20:00,32.1,23.4,30.28,WSW,249,2.7,2.7,70,0.00,CLR,,0.00,WeatherDisplay:10.37,2013-03-28 08:20:00,
2013-03-28 04:25:00,32.1,23.4,30.28,SSE,162,0.0,0.0,70,0.00,CLR,,0.00,WeatherDisplay:10.37,2013-03-28 08:25:00,
2013-03-28 04:30:00,32.1,23.4,30.28,South,190,1.0,6.0,70,0.00,CLR,CLR,0.00,WeatherDisplay:10.37,2013-03-28 08:30:00,
2013-03-28 04:35:00,32.1,23.4,30.28,South,177,2.0,7.0,70,0.00,CLR,CLR,0.00,WeatherDisplay:10.37,2013-03-28 08:35:00,
2013-03-28 04:40:00,32.1,23.4,30.28,South,177,5.4,5.4,70,0.00,CLR,,0.00,WeatherDisplay:10.37,2013-03-28 08:40:00,
2013-03-28 04:45:00,32.1,23.1,30.28,SSW,208,1.0,6.0,69,0.00,CLR,CLR,0.00,WeatherDisplay:10.37,2013-03-28 08:45:00,
2013-03-28 04:50:00,32.1,23.1,30.28,SSW,201,8.1,8.1,69,0.00,CLR,,0.00,WeatherDisplay:10.37,2013-03-28 08:50:00,
2013-03-28 04:55:00,32.1,23.4,30.28,SSW,194,2.3,2.3,70,0.00,CLR,,0.00,WeatherDisplay:10.37,2013-03-28 08:55:00,
2013-03-28 05:00:00,32.1,23.1,30.28,SSE,160,6.5,6.5,69,0.00,CLR,,0.00,WeatherDisplay:10.37,2013-03-28 09:00:00,
2013-03-28 05:05:00,32.1,23.4,30.28,SSW,210,5.8,0.0,70,0.00,CLR,,0.00,WeatherDisplay:10.37,2013-03-28 09:05:00,
2013-03-28 05:10:00,32.0,23.0,30.28,South,182,0.0,0.0,69,0.00,CLR,,0.00,WeatherDisplay:10.37,2013-03-28 09:10:00,
2013-03-28 05:15:00,32.0,23.0,30.28,SSE,163,6.9,6.9,69,0.00,CLR,,0.00,WeatherDisplay:10.37,2013-03-28 09:15:00,
2013-03-28 05:20:00,32.0,23.7,30.28,SSE,151,0.0,0.0,71,0.00,CLR,,0.00,WeatherDisplay:10.37,2013-03-28 09:20:00,
2013-03-28 05:25:00,31.9,23.9,30.28,ESE,106,5.0,9.0,72,0.00,CLR,CLR,0.00,WeatherDisplay:10.37,2013-03-28 09:25:00,
2013-03-28 05:30:00,31.6,23.3,30.28,East,96,2.0,7.0,71,0.00,CLR,CLR,0.00,WeatherDisplay:10.37,2013-03-28 09:30:00,
2013-03-28 05:35:00,31.4,23.1,30.28,SSW,193,0.0,0.0,71,0.00,CLR,,0.00,WeatherDisplay:10.37,2013-03-28 09:35:00,
2013-03-28 05:40:00,31.3,23.0,30.28,SSW,193,1.2,0.0,71,0.00,CLR,,0.00,WeatherDisplay:10.37,2013-03-28 09:40:00,
2013-03-28 05:45:00,31.3,23.0,30.28,SSW,192,1.2,1.2,71,0.00,CLR,,0.00,WeatherDisplay:10.37,2013-03-28 09:45:00,
2013-03-28 05:50:00,31.3,23.3,30.28,ESE,112,4.6,4.6,72,0.00,CLR,,0.00,WeatherDisplay:10.37,2013-03-28 09:50:00,
2013-03-28 05:55:00,31.4,23.4,30.28,ESE,107,0.0,5.0,72,0.00,CLR,CLR,0.00,WeatherDisplay:10.37,2013-03-28 09:55:00,
2013-03-28 06:00:00,31.4,22.7,30.28,SSW,212,0.0,2.8,70,0.00,CLR,,0.00,WeatherDisplay:10.37,2013-03-28 10:00:00,
2013-03-28 06:05:00,31.5,22.8,30.28,SE,141,8.1,8.1,70,0.00,CLR,,0.00,WeatherDisplay:10.37,2013-03-28 10:05:00,
2013-03-28 06:10:00,31.5,23.2,30.29,South,187,2.0,11.0,71,0.00,CLR,CLR,0.00,WeatherDisplay:10.37,2013-03-28 10:10:00,
2013-03-28 06:15:00,31.6,22.9,30.29,West,264,4.0,4.0,70,0.00,CLR,,0.00,WeatherDisplay:10.37,2013-03-28 10:15:00,
2013-03-28 06:20:00,31.6,22.9,30.29,NNE,20,2.3,0.0,70,0.00,CLR,,0.00,WeatherDisplay:10.37,2013-03-28 10:20:00,
2013-03-28 06:25:00,31.6,23.3,30.29,North,3,0.0,1.0,71,0.00,CLR,CLR,0.00,WeatherDisplay:10.37,2013-03-28 10:25:00,
2013-03-28 06:30:00,31.6,22.9,30.30,SW,227,4.6,4.6,70,0.00,CLR,,0.00,WeatherDisplay:10.37,2013-03-28 10:30:00,
2013-03-28 06:35:00,31.5,23.5,30.30,NW,304,1.1,1.1,72,0.00,CLR,,0.00,WeatherDisplay:10.37,2013-03-28 10:35:00,
2013-03-28 06:40:00,31.5,22.8,30.30,NW,321,0.0,6.0,70,0.00,CLR,CLR,0.00,WeatherDisplay:10.37,2013-03-28 10:40:00,
2013-03-28 06:45:00,31.4,23.4,30.30,NW,324,1.2,0.0,72,0.00,CLR,,0.00,WeatherDisplay:10.37,2013-03-28 10:45:00,
2013-03-28 06:50:00,31.4,23.7,30.30,NNE,20,5.8,0.0,73,0.00,CLR,,0.00,WeatherDisplay:10.37,2013-03-28 10:50:00,
2013-03-28 06:55:00,31.4,22.7,30.30,NNE,27,1.0,6.0,70,0.00,CLR,CLR,0.00,WeatherDisplay:10.37,2013-03-28 10:55:00,
2013-03-28 07:00:00,31.4,22.7,30.30,SSW,197,6.9,6.9,70,0.00,CLR,,0.00,WeatherDisplay:10.37,2013-03-28 11:00:00,
2013-03-28 07:05:00,31.4,23.4,30.30,East,84,2.0,7.0,72,0.00,CLR,CLR,0.00,WeatherDisplay:10.37,2013-03-28 11:05:00,
2013-03-28 07:10:00,31.4,22.7,30.31,North,2,6.9,6.9,70,0.00,CLR,,0.00,WeatherDisplay:10.37,2013-03-28 11:10:00,
2013-03-28 07:15:00,31.5,23.2,30.31,NW,314,0.0,0.0,71,0.00,CLR,,0.00,WeatherDisplay:10.37,2013-03-28 11:15:00,
2013-03-28 07:20:00,31.5,22.8,30.31,NW,314,0.0,0.0,70,0.00,CLR,,0.00,WeatherDisplay:10.37,2013-03-28 11:20:00,
2013-03-28 07:25:00,31.5,23.2,30.31,East,84,3.5,3.5,71,0.00,CLR,,0.00,WeatherDisplay:10.37,2013-03-28 11:25:00,
2013-03-28 07:30:00,31.6,23.6,30.31,WNW,293,5.8,5.8,72,0.00,CLR,,0.00,WeatherDisplay:10.37,2013-03-28 11:30:00,
2013-03-28 07:35:00,31.6,22.9,30.31,ENE,74,6.9,6.9,70,0.00,CLR,,0.00,WeatherDisplay:10.37,2013-03-28 11:35:00,
2013-03-28 07:40:00,31.7,23.0,30.32,WNW,299,2.3,0.0,70,0.00,CLR,,0.00,WeatherDisplay:10.37,2013-03-28 11:40:00,
2013-03-28 07:45:00,31.7,22.7,30.32,West,271,2.0,6.0,69,0.00,CLR,CLR,0.00,WeatherDisplay:10.37,2013-03-28 11:45:00,
2013-03-28 07:50:00,31.8,23.1,30.32,ESE,123,3.0,5.0,70,0.00,CLR,CLR,0.00,WeatherDisplay:10.37,2013-03-28 11:50:00,
2013-03-28 07:55:00,31.7,23.0,30.32,ENE,58,2.3,0.0,70,0.00,CLR,,0.00,WeatherDisplay:10.37,2013-03-28 11:55:00,
2013-03-28 08:00:00,31.6,23.3,30.32,NNE,27,3.0,6.0,71,0.00,CLR,CLR,0.00,WeatherDisplay:10.37,2013-03-28 12:00:00,
2013-03-28 08:05:00,31.7,23.0,30.32,North,353,2.3,2.3,70,0.00,CLR,,0.00,WeatherDisplay:10.37,2013-03-28 12:05:00,
2013-03-28 08:10:00,31.7,23.4,30.33,NE,40,0.0,8.0,71,0.00,CLR,CLR,0.00,WeatherDisplay:10.37,2013-03-28 12:10:00,
2013-03-28 08:15:00,31.7,23.4,30.33,NW,314,3.5,3.5,71,0.00,CLR,,0.00,WeatherDisplay:10.37,2013-03-28 12:15:00,
2013-03-28 08:20:00,31.6,23.6,30.32,NNW,330,2.0,9.0,72,0.00,CLR,CLR,0.00,WeatherDisplay:10.37,2013-03-28 12:20:00,
2013-03-28 08:25:00,31.6,23.3,30.33,NNW,333,2.0,8.0,71,0.00,CLR,CLR,0.00,WeatherDisplay:10.37,2013-03-28 12:25:00,
2013-03-28 08:30:00,31.7,23.4,30.33,NNE,21,6.9,6.9,71,0.00,CLR,,0.00,WeatherDisplay:10.37,2013-03-28 12:30:00,
2013-03-28 08:35:00,31.8,23.1,30.33,NNE,23,0.0,2.0,70,0.00,CLR,CLR,0.00,WeatherDisplay:10.37,2013-03-28 12:35:00,
2013-03-28 08:40:00,31.9,22.9,30.33,WNW,299,2.3,2.3,69,0.00,CLR,,0.00,WeatherDisplay:10.37,2013-03-28 12:40:00,
2013-03-28 08:45:00,32.1,23.4,30.33,NNW,339,2.0,8.0,70,0.00,CLR,CLR,0.00,WeatherDisplay:10.37,2013-03-28 12:45:00,
2013-03-28 08:50:00,32.1,23.4,30.33,NNW,337,2.0,6.0,70,0.00,CLR,CLR,0.00,WeatherDisplay:10.37,2013-03-28 12:50:00,
2013-03-28 08:55:00,32.2,23.8,30.33,NW,314,4.6,4.6,71,0.00,CLR,,0.00,WeatherDisplay:10.37,2013-03-28 12:55:00,
2013-03-28 09:00:00,32.2,23.5,30.34,NW,318,2.0,5.0,70,0.00,CLR,CLR,0.00,WeatherDisplay:10.37,2013-03-28 13:00:00,
2013-03-28 09:05:00,32.2,22.8,30.34,NW,305,2.0,7.0,68,0.00,CLR,CLR,0.00,WeatherDisplay:10.37,2013-03-28 13:05:00,
2013-03-28 09:10:00,32.4,23.4,30.34,NNW,343,4.6,4.6,69,0.00,CLR,,0.00,WeatherDisplay:10.37,2013-03-28 13:10:00,
2013-03-28 09:15:00,32.8,24.1,30.34,NW,309,2.0,7.0,70,0.00,CLR,CLR,0.00,WeatherDisplay:10.37,2013-03-28 13:15:00,
2013-03-28 09:20:00,33.2,23.4,30.34,South,170,4.6,4.6,67,0.00,CLR,,0.00,WeatherDisplay:10.37,2013-03-28 13:20:00,
2013-03-28 09:25:00,33.4,23.6,30.34,WSW,237,8.1,8.1,67,0.00,CLR,,0.00,WeatherDisplay:10.37,2013-03-28 13:25:00,
2013-03-28 09:30:00,33.7,24.6,30.34,WNW,286,6.9,6.9,69,0.00,CLR,,0.00,WeatherDisplay:10.37,2013-03-28 13:30:00,
2013-03-28 09:35:00,33.9,24.1,30.34,West,275,2.3,2.3,67,0.00,CLR,,0.00,WeatherDisplay:10.37,2013-03-28 13:35:00,
2013-03-28 09:40:00,34.1,23.6,30.34,West,270,3.5,0.0,65,0.00,CLR,,0.00,WeatherDisplay:10.37,2013-03-28 13:40:00,
2013-03-28 09:45:00,34.6,25.5,30.34,NW,325,4.6,4.6,69,0.00,CLR,,0.00,WeatherDisplay:10.37,2013-03-28 13:45:00,
2013-03-28 09:50:00,35.1,24.9,30.34,North,357,3.5,3.5,66,0.00,CLR,,0.00,WeatherDisplay:10.37,2013-03-28 13:50:00,
2013-03-28 09:55:00,35.6,25.7,30.34,East,79,3.5,3.5,67,0.00,CLR,,0.00,WeatherDisplay:10.37,2013-03-28 13:55:00,
2013-03-28 10:00:00,36.1,26.9,30.34,North,4,1.2,1.2,69,0.00,CLR,,0.00,WeatherDisplay:10.37,2013-03-28 14:00:00,
2013-03-28 10:05:00,36.5,25.8,30.34,SSE,167,4.4,4.4,65,0.00,CLR,,0.00,WeatherDisplay:10.37,2013-03-28 14:05:00,
2013-03-28 10:10:00,36.9,25.9,30.34,ENE,63,5.8,5.8,64,0.00,CLR,,0.00,WeatherDisplay:10.37,2013-03-28 14:10:00,
2013-03-28 10:15:00,37.0,25.6,30.34,South,172,10.4,10.4,63,0.00,CLR,,0.00,WeatherDisplay:10.37,2013-03-28 14:15:00,
2013-03-28 10:20:00,37.5,25.7,30.34,WSW,247,10.4,10.4,62,0.00,CLR,,0.00,WeatherDisplay:10.37,2013-03-28 14:20:00,
2013-03-28 10:25:00,37.6,25.0,30.34,ENE,68,5.4,5.4,60,0.00,CLR,,0.00,WeatherDisplay:10.37,2013-03-28 14:25:00,
2013-03-28 10:30:00,38.0,26.1,30.34,SE,135,8.1,8.1,62,0.00,CLR,,0.00,WeatherDisplay:10.37,2013-03-28 14:30:00,
2013-03-28 10:35:00,38.4,24.9,30.34,WNW,299,2.3,2.3,58,0.00,CLR,,0.00,WeatherDisplay:10.37,2013-03-28 14:35:00,
2013-03-28 10:40:00,38.7,26.0,30.34,ESE,108,0.0,5.0,60,0.00,CLR,CLR,0.00,WeatherDisplay:10.37,2013-03-28 14:40:00,
2013-03-28 10:45:00,38.8,25.3,30.34,WNW,294,4.4,4.4,58,0.00,CLR,,0.00,WeatherDisplay:10.37,2013-03-28 14:45:00,
2013-03-28 10:50:00,38.9,26.6,30.34,South,183,4.6,4.6,61,0.00,CLR,,0.00,WeatherDisplay:10.37,2013-03-28 14:50:00,
2013-03-28 10:51:00,38.9,25.8,30.34,South,177,2.3,2.3,59,0.00,CLR,,0.00,WeatherDisplay:10.37,2013-03-28 14:51:00,
2013-03-28 10:55:00,38.9,25.8,30.34,South,177,2.3,2.3,59,0.00,CLR,,0.00,WeatherDisplay:10.37,2013-03-28 14:55:00,
2013-03-28 11:00:00,38.9,25.8,30.34,South,177,2.3,2.3,59,0.00,CLR,,0.00,WeatherDisplay:10.37,2013-03-28 15:00:00,
2013-03-28 11:05:00,38.9,25.8,30.34,South,177,2.3,2.3,59,0.00,CLR,,0.00,WeatherDisplay:10.37,2013-03-28 15:05:00,
2013-03-28 11:10:00,39.2,26.5,30.35,East,96,6.9,6.9,60,0.00,CLR,,0.00,WeatherDisplay:10.37,2013-03-28 15:10:00,
2013-03-28 11:15:00,39.3,25.3,30.35,SSW,201,5.8,5.8,57,0.01,RA,,0.01,WeatherDisplay:10.37,2013-03-28 15:15:00,
2013-03-28 11:20:00,39.4,23.2,30.35,SSW,203,0.0,0.0,52,0.01,RA,,0.01,WeatherDisplay:10.37,2013-03-28 15:20:00,
2013-03-28 11:25:00,39.5,24.7,30.35,SSE,166,12.7,12.7,55,0.01,RA,,0.01,WeatherDisplay:10.37,2013-03-28 15:25:00,
2013-03-28 11:30:00,39.8,25.4,30.35,ESE,113,8.7,8.7,56,0.01,CLR,,0.01,WeatherDisplay:10.37,2013-03-28 15:30:00,
2013-03-28 11:35:00,40.2,25.3,30.35,NNE,31,2.3,2.3,55,0.01,,,0.01,WeatherDisplay:10.37,2013-03-28 15:35:00,
2013-03-28 11:40:00,40.2,23.0,30.34,NW,326,3.5,3.5,50,0.01,,,0.01,WeatherDisplay:10.37,2013-03-28 15:40:00,
2013-03-28 11:45:00,40.4,25.9,30.34,East,85,4.6,4.6,56,0.01,,,0.01,WeatherDisplay:10.37,2013-03-28 15:45:00,
2013-03-28 11:50:00,40.7,25.3,30.34,SSE,147,10.4,10.4,54,0.01,,,0.01,WeatherDisplay:10.37,2013-03-28 15:50:00,
2013-03-28 11:55:00,40.8,24.5,30.35,SE,126,5.8,5.8,52,0.01,,,0.01,WeatherDisplay:10.37,2013-03-28 15:55:00,
2013-03-28 12:00:00,40.9,23.7,30.34,SE,145,13.8,13.8,50,0.01,,,0.01,WeatherDisplay:10.37,2013-03-28 16:00:00,
2013-03-28 12:05:00,40.9,24.1,30.34,ESE,106,4.6,4.6,51,0.01,,,0.01,WeatherDisplay:10.37,2013-03-28 16:05:00,
2013-03-28 12:10:00,41.0,23.8,30.34,ESE,105,6.9,6.9,50,0.01,,,0.01,WeatherDisplay:10.37,2013-03-28 16:10:00,
2013-03-28 12:15:00,41.4,24.6,30.34,SE,135,7.6,7.6,51,0.01,,,0.01,WeatherDisplay:10.37,2013-03-28 16:15:00,
2013-03-28 12:20:00,41.8,25.0,30.34,SSE,153,9.2,9.2,51,0.00,,,0.01,WeatherDisplay:10.37,2013-03-28 16:20:00,
2013-03-28 12:25:00,42.2,26.7,30.34,West,272,1.1,0.0,54,0.01,RA,,0.02,WeatherDisplay:10.37,2013-03-28 16:25:00,
2013-03-28 12:30:00,42.6,26.2,30.34,SSW,202,8.1,8.1,52,0.01,RA,,0.02,WeatherDisplay:10.37,2013-03-28 16:30:00,
2013-03-28 12:35:00,43.0,25.1,30.34,South,172,2.2,2.2,49,0.01,,,0.02,WeatherDisplay:10.37,2013-03-28 16:35:00,
2013-03-28 12:40:00,43.5,26.1,30.33,North,8,9.2,9.2,50,0.02,RA,,0.03,WeatherDisplay:10.37,2013-03-28 16:40:00,
2013-03-28 12:45:00,43.9,26.0,30.34,ENE,73,5.4,5.4,49,0.02,RA,,0.03,WeatherDisplay:10.37,2013-03-28 16:45:00,
2013-03-28 12:50:00,44.3,23.2,30.33,SE,129,8.1,8.1,43,0.02,,,0.03,WeatherDisplay:10.37,2013-03-28 16:50:00,
2013-03-28 12:55:00,44.7,25.2,30.33,SSE,157,11.5,11.5,46,0.02,CLR,,0.03,WeatherDisplay:10.37,2013-03-28 16:55:00,
2013-03-28 13:00:00,45.0,24.9,30.33,SE,132,11.5,11.5,45,0.02,,,0.04,WeatherDisplay:10.37,2013-03-28 17:00:00,
2013-03-28 13:05:00,45.2,24.6,30.33,SE,139,9.2,9.2,44,0.03,RA,,0.04,WeatherDisplay:10.37,2013-03-28 17:05:00,
2013-03-28 13:10:00,45.2,24.0,30.33,SSE,153,7.6,7.6,43,0.04,RA,,0.05,WeatherDisplay:10.37,2013-03-28 17:10:00,
2013-03-28 13:15:00,45.3,25.7,30.33,East,83,10.4,10.4,46,0.04,RA,,0.05,WeatherDisplay:10.37,2013-03-28 17:15:00,
2013-03-28 13:20:00,45.6,22.6,30.33,NNE,28,15.0,15.0,40,0.04,,,0.05,WeatherDisplay:10.37,2013-03-28 17:20:00,
2013-03-28 13:25:00,45.8,24.0,30.33,ESE,120,12.0,12.0,42,0.04,CLR,,0.05,WeatherDisplay:10.37,2013-03-28 17:25:00,
2013-03-28 13:30:00,45.9,25.7,30.33,ESE,110,16.4,16.4,45,0.03,,,0.05,WeatherDisplay:10.37,2013-03-28 17:30:00,
2013-03-28 13:35:00,46.0,23.0,30.33,SSE,167,12.7,12.7,40,0.03,,,0.05,WeatherDisplay:10.37,2013-03-28 17:35:00,
2013-03-28 13:40:00,45.9,23.5,30.33,South,170,13.8,13.8,41,0.03,,,0.05,WeatherDisplay:10.37,2013-03-28 17:40:00,
2013-03-28 13:45:00,45.8,22.2,30.33,SSE,149,13.8,13.8,39,0.02,,,0.05,WeatherDisplay:10.37,2013-03-28 17:45:00,
2013-03-28 13:50:00,45.7,22.7,30.32,South,178,13.8,13.8,40,0.02,,,0.05,WeatherDisplay:10.37,2013-03-28 17:50:00,
2013-03-28 13:55:00,45.6,24.4,30.32,SSE,152,4.6,4.6,43,0.02,,,0.05,WeatherDisplay:10.37,2013-03-28 17:55:00,
2013-03-28 14:00:00,45.7,22.7,30.32,West,266,10.4,10.4,40,0.02,,,0.05,WeatherDisplay:10.37,2013-03-28 18:00:00,
2013-03-28 14:05:00,45.8,22.2,30.32,SSE,159,10.9,10.9,39,0.01,,,0.05,WeatherDisplay:10.37,2013-03-28 18:05:00,
2013-03-28 14:10:00,45.9,24.1,30.32,ESE,119,12.7,12.7,42,0.01,,,0.05,WeatherDisplay:10.37,2013-03-28 18:10:00,
2013-03-28 14:15:00,46.1,24.3,30.31,SE,142,16.1,16.1,42,0.00,,,0.05,WeatherDisplay:10.37,2013-03-28 18:15:00,
2013-03-28 14:20:00,46.2,23.8,30.32,SSE,160,10.4,10.4,41,0.00,,,0.05,WeatherDisplay:10.37,2013-03-28 18:20:00,
2013-03-28 14:25:00,46.5,24.0,30.31,SE,141,9.2,9.2,41,0.00,,,0.05,WeatherDisplay:10.37,2013-03-28 18:25:00,
2013-03-28 14:30:00,46.7,26.5,30.31,East,96,8.1,8.1,45,0.00,,,0.05,WeatherDisplay:10.37,2013-03-28 18:30:00,
2013-03-28 14:36:00,47.0,25.1,30.32,SE,126,12.7,12.7,42,0.00,,,0.05,WeatherDisplay:10.37,2013-03-28 18:36:00,
2013-03-28 14:41:00,47.0,23.3,30.31,East,81,6.9,6.9,39,0.00,,,0.05,WeatherDisplay:10.37,2013-03-28 18:41:00,
2013-03-28 14:46:00,47.2,26.4,30.30,SE,127,13.8,13.8,44,0.00,,,0.05,WeatherDisplay:10.37,2013-03-28 18:46:00,
2013-03-28 14:51:00,47.3,25.3,30.30,SSE,162,16.1,16.1,42,0.00,,,0.05,WeatherDisplay:10.37,2013-03-28 18:51:00,
2013-03-28 14:56:00,47.3,27.0,30.30,East,96,9.2,9.2,45,0.00,,,0.05,WeatherDisplay:10.37,2013-03-28 18:56:00,
2013-03-28 15:01:00,47.3,24.2,30.31,ESE,120,16.1,16.1,40,0.00,,,0.05,WeatherDisplay:10.37,2013-03-28 19:01:00,
2013-03-28 15:06:00,47.1,25.2,30.30,West,267,8.1,8.1,42,0.00,,,0.05,WeatherDisplay:10.37,2013-03-28 19:06:00,
2013-03-28 15:11:00,47.0,26.2,30.30,SE,126,12.7,12.7,44,0.00,,,0.05,WeatherDisplay:10.37,2013-03-28 19:11:00,
2013-03-28 15:16:00,47.1,25.7,30.30,SE,143,18.5,18.5,43,0.00,,,0.05,WeatherDisplay:10.37,2013-03-28 19:16:00,
2013-03-28 15:21:00,47.3,27.0,30.29,SE,126,10.4,10.4,45,0.00,,,0.05,WeatherDisplay:10.37,2013-03-28 19:21:00,
2013-03-28 15:26:00,47.5,27.2,30.29,SSE,151,17.3,17.3,45,0.00,,,0.05,WeatherDisplay:10.37,2013-03-28 19:26:00,
2013-03-28 15:31:00,47.4,26.0,30.29,SW,218,19.6,19.6,43,0.00,,,0.05,WeatherDisplay:10.37,2013-03-28 19:31:00,
2013-03-28 15:36:00,47.2,26.4,30.29,SE,133,12.7,12.7,44,0.00,,,0.05,WeatherDisplay:10.37,2013-03-28 19:36:00,
2013-03-28 15:41:00,47.3,28.1,30.29,SSE,147,12.7,12.7,47,0.00,,,0.05,WeatherDisplay:10.37,2013-03-28 19:41:00,
2013-03-28 15:46:00,47.4,28.7,30.29,SE,143,11.5,11.5,48,0.00,,,0.05,WeatherDisplay:10.37,2013-03-28 19:46:00,
2013-03-28 15:51:00,47.6,27.8,30.28,SE,141,17.3,17.3,46,0.00,,,0.05,WeatherDisplay:10.37,2013-03-28 19:51:00,
2013-03-28 15:56:00,47.5,27.7,30.28,East,98,11.5,11.5,46,0.00,,,0.05,WeatherDisplay:10.37,2013-03-28 19:56:00,
2013-03-28 16:01:00,47.6,27.8,30.28,ESE,110,17.3,17.3,46,0.00,,,0.05,WeatherDisplay:10.37,2013-03-28 20:01:00,
2013-03-28 16:06:00,47.6,28.3,30.28,SSE,162,9.2,9.2,47,0.00,,,0.05,WeatherDisplay:10.37,2013-03-28 20:06:00,
2013-03-28 16:11:00,47.4,27.1,30.27,SSW,200,10.4,10.4,45,0.00,,,0.05,WeatherDisplay:10.37,2013-03-28 20:11:00,
2013-03-28 16:16:00,47.5,27.2,30.27,SSE,149,13.8,13.8,45,0.00,,,0.05,WeatherDisplay:10.37,2013-03-28 20:16:00,
2013-03-28 16:21:00,47.6,28.9,30.27,SSE,160,13.8,13.8,48,0.00,,,0.05,WeatherDisplay:10.37,2013-03-28 20:21:00,
2013-03-28 16:26:00,47.5,28.8,30.28,SSE,160,15.3,15.3,48,0.00,,,0.05,WeatherDisplay:10.37,2013-03-28 20:26:00,
2013-03-28 16:31:00,47.5,29.3,30.27,ESE,108,12.0,12.0,49,0.00,,,0.05,WeatherDisplay:10.37,2013-03-28 20:31:00,
2013-03-28 16:36:00,47.6,29.4,30.27,East,100,12.7,12.7,49,0.00,,,0.05,WeatherDisplay:10.37,2013-03-28 20:36:00,
2013-03-28 16:41:00,47.7,29.5,30.27,SE,143,13.8,13.8,49,0.00,,,0.05,WeatherDisplay:10.37,2013-03-28 20:41:00,
2013-03-28 16:46:00,47.7,27.9,30.27,SE,129,15.0,15.0,46,0.00,,,0.05,WeatherDisplay:10.37,2013-03-28 20:46:00,
2013-03-28 16:51:00,47.6,28.3,30.27,SE,143,12.7,12.7,47,0.00,,,0.05,WeatherDisplay:10.37,2013-03-28 20:51:00,
2013-03-28 16:56:00,47.6,28.9,30.28,ESE,116,19.6,19.6,48,0.00,,,0.05,WeatherDisplay:10.37,2013-03-28 20:56:00,
2013-03-28 17:01:00,47.6,27.8,30.28,SE,139,18.4,18.4,46,0.00,,,0.05,WeatherDisplay:10.37,2013-03-28 21:01:00,
2013-03-28 17:06:00,47.5,28.8,30.27,SE,135,17.3,17.3,48,0.00,,,0.05,WeatherDisplay:10.37,2013-03-28 21:06:00,
2013-03-28 17:11:00,47.4,28.2,30.27,ESE,113,8.1,8.1,47,0.00,,,0.05,WeatherDisplay:10.37,2013-03-28 21:11:00,
2013-03-28 17:16:00,47.6,29.4,30.27,East,91,5.8,5.8,49,0.00,,,0.05,WeatherDisplay:10.37,2013-03-28 21:16:00,
2013-03-28 17:21:00,47.7,27.4,30.27,SSE,152,14.2,14.2,45,0.00,,,0.05,WeatherDisplay:10.37,2013-03-28 21:21:00,
2013-03-28 17:26:00,47.9,28.1,30.27,SSE,164,18.4,18.4,46,0.00,,,0.05,WeatherDisplay:10.37,2013-03-28 21:26:00,
2013-03-28 17:31:00,47.8,26.4,30.27,NNE,25,8.1,8.1,43,0.00,,,0.05,WeatherDisplay:10.37,2013-03-28 21:31:00,
2013-03-28 17:36:00,47.5,27.7,30.28,NW,326,7.6,7.6,46,0.00,,,0.05,WeatherDisplay:10.37,2013-03-28 21:36:00,
2013-03-28 17:41:00,47.0,25.1,30.28,West,274,21.9,21.9,42,0.00,,,0.05,WeatherDisplay:10.37,2013-03-28 21:41:00,
2013-03-28 17:46:00,46.7,25.4,30.27,NW,314,13.8,13.8,43,0.00,,,0.05,WeatherDisplay:10.37,2013-03-28 21:46:00,
2013-03-28 17:51:00,46.6,25.8,30.27,North,354,10.4,10.4,44,0.00,,,0.05,WeatherDisplay:10.37,2013-03-28 21:51:00,
2013-03-28 17:56:00,46.7,25.4,30.27,NE,55,7.6,7.6,43,0.00,,,0.05,WeatherDisplay:10.37,2013-03-28 21:56:00,
2013-03-28 18:01:00,46.9,26.6,30.27,ESE,110,11.5,11.5,45,0.00,,,0.05,WeatherDisplay:10.37,2013-03-28 22:01:00,
2013-03-28 18:06:00,47.1,27.9,30.27,ESE,110,8.1,8.1,47,0.00,,,0.05,WeatherDisplay:10.37,2013-03-28 22:06:00,
2013-03-28 18:11:00,47.2,26.4,30.27,NNW,343,4.6,4.6,44,0.00,,,0.05,WeatherDisplay:10.37,2013-03-28 22:11:00,
2013-03-28 18:16:00,47.3,27.5,30.27,SE,127,10.4,10.4,46,0.00,,,0.05,WeatherDisplay:10.37,2013-03-28 22:16:00,
2013-03-28 18:21:00,47.3,25.9,30.27,ESE,114,6.9,6.9,43,0.00,,,0.05,WeatherDisplay:10.37,2013-03-28 22:21:00,
2013-03-28 18:26:00,47.3,27.0,30.27,NE,46,8.1,8.1,45,0.00,,,0.05,WeatherDisplay:10.37,2013-03-28 22:26:00,
2013-03-28 18:31:00,47.2,25.8,30.27,ENE,72,8.7,8.7,43,0.00,,,0.05,WeatherDisplay:10.37,2013-03-28 22:31:00,
2013-03-28 18:36:00,47.1,25.2,30.27,ESE,119,9.2,9.2,42,0.00,,,0.05,WeatherDisplay:10.37,2013-03-28 22:36:00,
2013-03-28 18:41:00,47.0,26.7,30.28,East,95,10.4,10.4,45,0.00,,,0.05,WeatherDisplay:10.37,2013-03-28 22:41:00,
2013-03-28 18:47:00,47.0,27.3,30.28,ENE,76,7.6,7.6,46,0.00,,,0.05,WeatherDisplay:10.37,2013-03-28 22:47:00,
2013-03-28 18:52:00,46.9,27.2,30.28,ESE,117,5.4,5.4,46,0.00,,,0.05,WeatherDisplay:10.37,2013-03-28 22:52:00,
2013-03-28 18:57:00,46.9,26.1,30.28,ENE,74,1.2,0.0,44,0.00,,,0.05,WeatherDisplay:10.37,2013-03-28 22:57:00,
2013-03-28 19:02:00,46.9,25.5,30.28,North,351,5.8,5.8,43,0.00,,,0.05,WeatherDisplay:10.37,2013-03-28 23:02:00,
2013-03-28 19:07:00,46.7,25.4,30.28,NNW,339,4.6,4.6,43,0.00,,,0.05,WeatherDisplay:10.37,2013-03-28 23:07:00,
2013-03-28 19:12:00,46.5,26.3,30.28,NE,35,8.7,8.7,45,0.00,,,0.05,WeatherDisplay:10.37,2013-03-28 23:12:00,
2013-03-28 19:17:00,46.3,25.6,30.28,ENE,77,5.8,5.8,44,0.00,,,0.05,WeatherDisplay:10.37,2013-03-28 23:17:00,
2013-03-28 19:22:00,46.1,26.4,30.28,SE,129,9.2,9.2,46,0.00,,,0.05,WeatherDisplay:10.37,2013-03-28 23:22:00,
2013-03-28 19:27:00,45.9,25.7,30.28,ESE,114,10.4,10.4,45,0.00,,,0.05,WeatherDisplay:10.37,2013-03-28 23:27:00,
2013-03-28 19:32:00,45.7,25.5,30.29,North,351,8.1,8.1,45,0.00,,,0.05,WeatherDisplay:10.37,2013-03-28 23:32:00,
2013-03-28 19:37:00,45.6,23.2,30.29,NE,47,6.5,6.5,41,0.00,,,0.06,WeatherDisplay:10.37,2013-03-28 23:37:00,
2013-03-28 19:42:00,45.5,24.3,30.29,SW,220,4.6,4.6,43,0.01,RA,,0.06,WeatherDisplay:10.37,2013-03-28 23:42:00,
2013-03-28 19:47:00,45.3,24.1,30.29,SW,221,8.1,8.1,43,0.01,RA,,0.06,WeatherDisplay:10.37,2013-03-28 23:47:00,
2013-03-28 19:52:00,45.2,23.4,30.29,WSW,243,4.0,8.0,42,0.01,CLR,,0.06,WeatherDisplay:10.37,2013-03-28 23:52:00,
2013-03-28 19:57:00,45.1,23.3,30.29,ESE,110,6.9,6.9,42,0.01,CLR,,0.06,WeatherDisplay:10.37,2013-03-28 23:57:00,
2013-03-28 20:02:00,44.9,23.2,30.29,SSE,153,8.1,8.1,42,0.01,CLR,,0.06,WeatherDisplay:10.37,2013-03-29 00:02:00,
2013-03-28 20:07:00,44.9,23.7,30.29,SSE,155,8.1,8.1,43,0.01,CLR,,0.06,WeatherDisplay:10.37,2013-03-29 00:07:00,
2013-03-28 20:12:00,44.8,23.6,30.29,North,355,1.2,0.0,43,0.01,CLR,,0.06,WeatherDisplay:10.37,2013-03-29 00:12:00,
2013-03-28 20:17:00,44.7,23.0,30.29,SSE,159,3.5,3.5,42,0.01,CLR,,0.06,WeatherDisplay:10.37,2013-03-29 00:17:00,
2013-03-28 20:22:00,44.5,22.2,30.30,SW,218,0.0,0.0,41,0.01,CLR,,0.06,WeatherDisplay:10.37,2013-03-29 00:22:00,
2013-03-28 20:27:00,44.4,22.1,30.30,WSW,242,5.8,5.8,41,0.01,CLR,,0.06,WeatherDisplay:10.37,2013-03-29 00:27:00,
2013-03-28 20:32:00,44.3,22.6,30.30,WSW,237,2.3,2.3,42,0.01,CLR,,0.06,WeatherDisplay:10.37,2013-03-29 00:32:00,
2013-03-28 20:37:00,44.2,23.1,30.30,NW,306,5.8,0.0,43,0.01,CLR,,0.06,WeatherDisplay:10.37,2013-03-29 00:37:00,
2013-03-28 20:42:00,44.0,22.9,30.30,NNE,25,2.3,0.0,43,0.00,CLR,,0.06,WeatherDisplay:10.37,2013-03-29 00:42:00,
2013-03-28 20:47:00,43.9,22.3,30.30,NNE,25,0.0,0.0,42,0.00,CLR,,0.06,WeatherDisplay:10.37,2013-03-29 00:47:00,
2013-03-28 20:52:00,43.8,22.7,30.30,NNE,25,0.0,0.0,43,0.00,CLR,,0.06,WeatherDisplay:10.37,2013-03-29 00:52:00,
2013-03-28 20:57:00,43.7,22.1,30.30,NNE,23,0.0,0.0,42,0.00,CLR,,0.06,WeatherDisplay:10.37,2013-03-29 00:57:00,
2013-03-28 21:02:00,43.6,23.1,30.30,West,266,0.0,0.0,44,0.00,CLR,,0.06,WeatherDisplay:10.37,2013-03-29 01:02:00,
2013-03-28 21:07:00,43.4,21.8,30.30,WSW,257,2.3,2.3,42,0.00,CLR,,0.06,WeatherDisplay:10.37,2013-03-29 01:07:00,
2013-03-28 21:12:00,43.3,23.9,30.30,WNW,292,4.4,4.4,46,0.00,CLR,,0.06,WeatherDisplay:10.37,2013-03-29 01:12:00,
2013-03-28 21:17:00,43.3,21.1,30.30,NW,307,0.0,0.0,41,0.00,CLR,,0.06,WeatherDisplay:10.37,2013-03-29 01:17:00,
2013-03-28 21:22:00,43.3,21.7,30.30,NW,310,3.5,3.5,42,0.00,CLR,,0.06,WeatherDisplay:10.37,2013-03-29 01:22:00,
2013-03-28 21:27:00,43.2,22.7,30.30,East,89,3.5,3.5,44,0.00,CLR,,0.06,WeatherDisplay:10.37,2013-03-29 01:27:00,
2013-03-28 21:32:00,43.1,22.1,30.30,WSW,246,0.0,0.0,43,0.00,CLR,,0.06,WeatherDisplay:10.37,2013-03-29 01:32:00,
2013-03-28 21:37:00,43.0,23.1,30.30,ENE,72,6.5,6.5,45,0.00,CLR,,0.06,WeatherDisplay:10.37,2013-03-29 01:37:00,
2013-03-28 21:42:00,42.7,23.3,30.30,ESE,103,1.2,0.0,46,0.00,CLR,,0.06,WeatherDisplay:10.37,2013-03-29 01:42:00,
2013-03-28 21:47:00,42.5,22.1,30.31,East,101,0.0,0.0,44,0.00,CLR,,0.06,WeatherDisplay:10.37,2013-03-29 01:47:00,
2013-03-28 21:52:00,42.4,22.0,30.30,SSW,205,4.6,4.6,44,0.00,CLR,,0.06,WeatherDisplay:10.37,2013-03-29 01:52:00,
2013-03-28 21:57:00,42.4,22.5,30.31,ESE,121,2.3,2.3,45,0.00,CLR,,0.06,WeatherDisplay:10.37,2013-03-29 01:57:00,
2013-03-28 22:02:00,42.3,21.9,30.31,SSE,156,3.3,3.3,44,0.00,CLR,,0.06,WeatherDisplay:10.37,2013-03-29 02:02:00,
2013-03-28 22:07:00,42.2,22.4,30.31,SSE,167,0.0,0.0,45,0.00,CLR,,0.06,WeatherDisplay:10.37,2013-03-29 02:07:00,
2013-03-28 22:12:00,42.3,21.9,30.31,South,170,1.2,1.2,44,0.00,CLR,,0.06,WeatherDisplay:10.37,2013-03-29 02:12:00,
2013-03-28 22:17:00,42.4,24.1,30.31,East,97,3.5,3.5,48,0.00,CLR,,0.06,WeatherDisplay:10.37,2013-03-29 02:17:00,
2013-03-28 22:22:00,42.2,22.4,30.31,SE,136,3.5,3.5,45,0.00,CLR,,0.06,WeatherDisplay:10.37,2013-03-29 02:22:00,
2013-03-28 22:27:00,42.1,22.3,30.32,SSE,160,4.6,4.6,45,0.00,CLR,,0.06,WeatherDisplay:10.37,2013-03-29 02:27:00,
2013-03-28 22:32:00,41.9,22.6,30.32,ESE,108,3.5,3.5,46,0.00,CLR,,0.06,WeatherDisplay:10.37,2013-03-29 02:32:00,
2013-03-28 22:37:00,41.8,22.5,30.32,ESE,108,3.5,3.5,46,0.00,CLR,,0.06,WeatherDisplay:10.37,2013-03-29 02:37:00,
2013-03-28 22:42:00,41.8,22.0,30.32,South,186,0.0,0.0,45,0.00,CLR,,0.06,WeatherDisplay:10.37,2013-03-29 02:42:00,
2013-03-28 22:47:00,41.7,21.9,30.32,South,187,0.0,0.0,45,0.00,CLR,,0.06,WeatherDisplay:10.37,2013-03-29 02:47:00,
2013-03-28 22:52:00,41.7,21.9,30.32,South,186,0.0,0.0,45,0.00,CLR,,0.06,WeatherDisplay:10.37,2013-03-29 02:52:00,
2013-03-28 22:57:00,41.5,21.7,30.32,South,186,0.0,0.0,45,0.00,CLR,,0.06,WeatherDisplay:10.37,2013-03-29 02:57:00,
2013-03-28 23:02:00,41.4,21.6,30.32,South,186,0.0,0.0,45,0.00,CLR,,0.06,WeatherDisplay:10.37,2013-03-29 03:02:00,
2013-03-28 23:07:00,41.3,21.5,30.32,South,186,0.0,0.0,45,0.00,CLR,,0.06,WeatherDisplay:10.37,2013-03-29 03:07:00,
2013-03-28 23:12:00,41.1,22.4,30.32,SW,216,0.0,0.0,47,0.00,CLR,,0.06,WeatherDisplay:10.37,2013-03-29 03:12:00,
2013-03-28 23:17:00,41.0,21.8,30.33,SW,216,1.2,1.2,46,0.00,CLR,,0.06,WeatherDisplay:10.37,2013-03-29 03:17:00,
2013-03-28 23:22:00,40.8,21.6,30.33,SW,216,0.0,0.0,46,0.00,CLR,,0.06,WeatherDisplay:10.37,2013-03-29 03:22:00,
2013-03-28 23:27:00,40.7,21.5,30.33,SW,218,2.3,2.3,46,0.00,CLR,,0.06,WeatherDisplay:10.37,2013-03-29 03:27:00,
2013-03-28 23:32:00,40.7,21.5,30.33,NW,315,0.0,0.0,46,0.00,CLR,,0.06,WeatherDisplay:10.37,2013-03-29 03:32:00,
2013-03-28 23:37:00,40.6,22.4,30.33,NW,314,1.2,0.0,48,0.00,CLR,,0.06,WeatherDisplay:10.37,2013-03-29 03:37:00,
2013-03-28 23:42:00,40.5,21.3,30.33,NW,314,0.0,0.0,46,0.00,CLR,,0.06,WeatherDisplay:10.37,2013-03-29 03:42:00,
2013-03-28 23:47:00,40.3,21.6,30.33,NW,314,0.0,0.0,47,0.00,CLR,,0.06,WeatherDisplay:10.37,2013-03-29 03:47:00,
2013-03-28 23:52:00,40.1,21.5,30.33,NW,314,0.0,0.0,47,0.00,CLR,,0.06,WeatherDisplay:10.37,2013-03-29 03:52:00,
2013-03-28 23:57:00,40.0,20.9,30.33,NW,314,0.0,0.0,46,0.00,CLR,,0.06,WeatherDisplay:10.37,2013-03-29 03:57:00,